This is the latest recevied weather packets stored in our database for station/object AE8SP-10. If no packets are shown the sender has not sent any weather packets the latest 10 day(s).
| Time | Temp. | Humidity | Pressure | Rain* | Wind** | Luminosity | Snow |
|---|---|---|---|---|---|---|---|
| 1777971545 | 13.33° C | 91% | 0 hPa | 0 mm | - | - | - |
| 1777960744 | -17.78° C | 100% | 0 hPa | 0.25 mm | - | - | - |
| 1777957144 | -17.78° C | 100% | 0 hPa | 1.02 mm | - | - | - |
| 1777946344 | 13.89° C | 97% | 0 hPa | 2.79 mm | - | - | - |
| 1777777145 | 3.89° C | 63% | 0 hPa | 0 mm | - | - | - |
| 1777733946 | -17.78° C | 100% | 0 hPa | 0 mm | - | - | - |
| 1777723146 | -17.78° C | 100% | 0 hPa | 0 mm | - | - | - |
| 1777708745 | 2.22° C | 87% | 0 hPa | 0 mm | - | - | - |
| 1777697945 | 2.78° C | 81% | 0 hPa | 0 mm | - | - | - |
| 1777669145 | -17.78° C | 100% | 0 hPa | 0 mm | - | - | - |
| 1777622404 | 5° C | 81% | 0 hPa | 0 mm | - | - | - |
| 1777586407 | 10.56° C | 47% | 0 hPa | 0 mm | - | - | - |
| 1777546744 | 4.44° C | 99% | 0 hPa | 0 mm | - | - | - |
| 1777543144 | -17.78° C | 100% | 0 hPa | 0 mm | - | - | - |
| 1777539544 | 3.89° C | 98% | 0 hPa | 0 mm | - | - | - |
| 1777535944 | -17.78° C | 100% | 0 hPa | 0 mm | - | - | - |
| 1777532343 | 4.44° C | 98% | 0 hPa | 0 mm | - | - | - |
| 1777528744 | -17.78° C | 100% | 0 hPa | 0 mm | - | - | - |
| 1777525145 | -17.78° C | 100% | 0 hPa | 0.51 mm | - | - | - |
| 1777517945 | 6.11° C | 96% | 0 hPa | 0.76 mm | - | - | - |
| 1777514344 | -17.78° C | 100% | 0 hPa | 0.76 mm | - | - | - |
| 1777496345 | -17.78° C | 100% | 0 hPa | 0 mm | - | - | - |
| 1777471203 | 7.78° C | 96% | 0 hPa | 0 mm | - | - | - |
| 1777467543 | -17.78° C | 100% | 0 hPa | 1.02 mm | - | - | - |
| 1777463943 | -17.78° C | 100% | 0 hPa | 2.29 mm | - | - | - |
* Rain latest hour (hover to see other rain measurements)
** Current wind speed in m/s (hover to see current wind gust speed)